Location: Newark
(54.6833°N, 25.2833°E)
Time: 01:23:26
(UTC+00:00)

Tiros 1 despin weight - Pass Details

Date: 20 November 2019
Orbit: 594 x 642 km, 48.2° (Epoch: 12 December)

Event Time Altitude Azimuth Distance (km) Brightness Sun altitude
Rises 14:34:19 0° 262° (W) 2,836 ? -3.8°
Reaches altitude 10° 14:36:44 10° 253° (WSW) 1,938 ? -4.1°
Maximum altitude 14:40:44 34° 189° (S) 1,004 ? -4.6°
Drops below altitude 10° 14:44:47 10° 125° (SE) 1,958 ? -5.2°
Sets 14:47:15 0° 116° (ESE) 2,870 ? -5.5°
